sat.trackr.live / text

‹ back to catalog

STARLINK-34787

NORAD 65204 · 2025-176G

PAYLOAD ACTIVE UNKNOWN

§ Identity

Operator
Country
US
Launch date
2025-08-14
Launch site
AFETR
Launch vehicle
Mass (kg)
RCS (m²)

Purposes: comms

External: N2YO · Heavens-Above · Gunter

§ Orbital elements

Epoch: 2026-05-25T01:02:28.406976Z

Period
93.85 min
Inclination
53.1588°
Eccentricity
0.0001289
Mean motion
15.34403523 rev/d
Perigee alt
461.8 km
Apogee alt
463.6 km
Semi-major
6,840.8 km
B*
7.9508e-4
RAAN
157.1439°
Arg perigee
87.2425°
Mean anomaly
272.8725°
Rev number
4,482

§ Raw data

STARLINK-347871 65204U 25176G   26145.04338434  .00026585  00000+0  79508-3 0  99922 65204  53.1588 157.1439 0001289  87.2425 272.8725 15.34403523 44828

JSON: /api/v1/satellites/65204 · /tle

For live sub-satellite position, see the globe view (requires WebGL).

§ Visibility from observer

Set your observer location to see the next 7 days of passes ≥ 10°. The values pass through the URL so the page stays shareable.

No JS? Fill the form by hand. The geolocation button needs JavaScript.